User: anonymous   Login
Location: Limerick
(52.6650°N, 8.6230°W)
Time: 07:21:42
(UTC+01:00)
Language:

ISS - Orbit

View from above orbital plane
View from above orbital plane
View from above satellite
View from above satellite

Ground track
Ground track

The orbit data is extracted from the following two-line orbital elements,

1 25544U 98067A   17235.55162709  .00016717  00000-0  10270-3 0  9077
2 25544  51.6375  62.5051 0004883 172.7385 187.3840 15.54135756 32226
Epoch (UTC): 23 August 2017 13:14:20
Eccentricity: 0.0004883
inclination: 51.6375°
perigee height: 401 km
apogee height: 408 km
right ascension of ascending node: 62.5051°
argument of perigee: 172.7385°
revolutions per day: 15.54135756
mean anomaly at epoch: 187.3840°
orbit number at epoch: 3222

The dashed part of the orbit path shows where the satellite is in the earth's shadow,  

DLR